This is the latest recevied weather packets stored in our database for station/object VO2AGO. If no packets are shown the sender has not sent any weather packets the latest 10 day(s).
| Time | Temp. | Humidity | Pressure | Rain* | Wind** | Luminosity | Snow |
|---|---|---|---|---|---|---|---|
| 1777567401 | 8.33° C | - | - | - | 0 m/s | 1807 W/m² | - |
| 1777566951 | 9.44° C | - | - | - | 0 m/s | 1798 W/m² | - |
| 1777566501 | 8.89° C | - | - | - | 0 m/s | 1786 W/m² | - |
| 1777566052 | 7.78° C | - | - | - | 0 m/s | 1800 W/m² | - |
| 1777565601 | 7.22° C | - | - | - | 0 m/s | 1791 W/m² | - |
| 1777565151 | 7.22° C | - | - | - | 0 m/s | 1827 W/m² | - |
| 1777564701 | 7.22° C | - | - | - | 0 m/s | 1775 W/m² | - |
| 1777564253 | 6.67° C | - | - | - | 0 m/s | 1117 W/m² | - |
| 1777563801 | 6.11° C | - | - | - | 0 m/s | 1944 W/m² | - |
| 1777563351 | 6.11° C | - | - | - | 0 m/s | 1664 W/m² | - |
| 1777562452 | 6.11° C | - | - | - | 0 m/s | 1807 W/m² | - |
| 1777562002 | 6.11° C | - | - | - | 0 m/s | 1392 W/m² | - |
| 1777561551 | 6.11° C | - | - | - | 0 m/s | 1369 W/m² | - |
| 1777561101 | 7.22° C | - | - | - | 0 m/s | 1386 W/m² | - |
| 1777560651 | 6.67° C | - | - | - | 0 m/s | 1452 W/m² | - |
| 1777560201 | 7.22° C | - | - | - | 0 m/s | 1248 W/m² | - |
| 1777559752 | 6.67° C | - | - | - | 0 m/s | 1230 W/m² | - |
| 1777559301 | 7.22° C | - | - | - | 0 m/s | 1243 W/m² | - |
| 1777558851 | 8.33° C | - | - | - | 0 m/s | 1259 W/m² | - |
| 1777558401 | 7.22° C | - | - | - | 0 m/s | 1110 W/m² | - |
| 1777557952 | 7.22° C | - | - | - | 0 m/s | 1193 W/m² | - |
| 1777552101 | 5° C | - | - | - | 0 m/s | 401 W/m² | - |
| 1777551651 | 4.44° C | - | - | - | 0 m/s | 461 W/m² | - |
| 1777551202 | 4.44° C | - | - | - | 0 m/s | 476 W/m² | - |
| 1777550751 | 3.89° C | - | - | - | 0 m/s | 454 W/m² | - |
* Rain since midnight (hover to see other rain measurements)
** Current wind speed in m/s (hover to see current wind gust speed)